Thunder radar more information blitzortung!


Radar de pluja more information rain snow radar


Visita la nostra xarxa de llocs de meteo:

Template documentation
and downloads

And another site



No particular awareness of the weather is required.    There are no Weather-warnings

Pagina Historial Weather Underground text

Diari Resum Cap La, TWC- Unitats:  Imperial    Mètric   Tant
« Previous Dia
SegĂźent Dia »
Diari Setmana Mensual Anual Personalitzada
  Maxima: Minima: Media:
Temperatura: TemperatureC °F 18.7 °F 22.6 °F
Punt de rosada: DewpointC °F 13.2 °F 14.8 °F
Humitat: Humidity % 40 % 62 %
Wind Speed: WindSpeedKMH mph 0.0 mph 0 mph
RĂ fegues de vent: WindSpeedGustKMH mph - -
Vent:- - WSW
Pression baro: PressurehPa in 1015.9 in -
Precipitacions: 0.0 in    
Historical Graphs
 
 
Dades de taula per Cap La, TWC-
Temps Temperatura Punt de rosada Pression baro Vent Wind Speed RĂ fegues de vent Humitat Rainfall Rate (Hourly)
TemperatureC °F DewpointC °F PressurehPa in Calm     Humidity % HourlyPrecipMM in
00:04 23.4 °F 13.8 °F 1017.9 in Calm     55 % 0.0 in
00:09 23.3 °F 14.1 °F 1017.9 in Calm     56 % 0.0 in
00:14 23.3 °F 14.1 °F 1017.9 in Calm     56 % 0.0 in
00:19 23.2 °F 13.9 °F 1017.9 in Calm     56 % 0.0 in
00:24 23.3 °F 14.1 °F 1017.9 in Calm     56 % 0.0 in
00:29 23.3 °F 14.1 °F 1017.9 in Calm     56 % 0.0 in
00:34 23.3 °F 13.8 °F 1017.9 in Calm     55 % 0.0 in
00:39 23.2 °F 13.9 °F 1017.9 in Calm     56 % 0.0 in
00:44 23.0 °F 13.7 °F 1017.9 in Calm     56 % 0.0 in
00:49 22.9 °F 13.9 °F 1017.9 in Calm     57 % 0.0 in
00:54 22.8 °F 13.8 °F 1017.9 in Calm     57 % 0.0 in
00:59 22.8 °F 13.8 °F 1017.9 in Calm     57 % 0.0 in
01:04 22.8 °F 13.8 °F 1017.9 in Calm     57 % 0.0 in
01:09 22.9 °F 13.9 °F 1017.9 in Calm     57 % 0.0 in
01:14 23.1 °F 13.8 °F 1017.9 in Calm     56 % 0.0 in
01:19 23.1 °F 14.1 °F 1017.9 in Calm     57 % 0.0 in
01:24 23.0 °F 14.0 °F 1017.9 in Calm     57 % 0.0 in
01:27 23.0 °F 14.0 °F 1017.9 in Calm     57 % 0.0 in
01:34 22.9 °F 14.2 °F 1017.9 in Calm     58 % 0.0 in
01:39 22.8 °F 14.1 °F 1017.9 in Calm     58 % 0.0 in
01:44 22.7 °F 14.0 °F 1017.9 in Calm     58 % 0.0 in
01:48 22.6 °F 13.9 °F 1017.9 in Calm     58 % 0.0 in
01:54 22.5 °F 13.8 °F 1017.9 in Calm     58 % 0.0 in
01:59 22.3 °F 13.9 °F 1017.9 in Calm     59 % 0.0 in
02:04 22.2 °F 13.8 °F 1017.9 in Calm     59 % 0.0 in
02:08 21.9 °F 14.1 °F 1017.9 in Calm     61 % 0.0 in
02:14 21.5 °F 13.9 °F 1017.9 in Calm     62 % 0.0 in
02:19 21.3 °F 13.7 °F 1017.9 in Calm     62 % 0.0 in
02:24 21.2 °F 13.9 °F 1017.9 in Calm     63 % 0.0 in
02:29 21.0 °F 13.7 °F 1017.9 in Calm     63 % 0.0 in
02:32 20.8 °F 13.5 °F 1017.9 in Calm     63 % 0.0 in
02:39 20.7 °F 13.7 °F 1017.9 in Calm     64 % 0.0 in
02:43 20.6 °F 13.6 °F 1017.9 in Calm     64 % 0.0 in
02:49 20.5 °F 13.7 °F 1017.9 in Calm     65 % 0.0 in
02:54 20.4 °F 13.8 °F 1017.9 in Calm     66 % 0.0 in
02:59 20.4 °F 13.6 °F 1017.9 in Calm     65 % 0.0 in
03:04 20.4 °F 13.6 °F 1017.9 in Calm     65 % 0.0 in
03:09 20.3 °F 13.5 °F 1017.9 in Calm     65 % 0.0 in
03:14 20.2 °F 13.4 °F 1017.9 in WSW 1.4 mph   65 % 0.0 in
03:19 20.0 °F 13.2 °F 1017.9 in WSW 1.9 mph   65 % 0.0 in
03:24 20.0 °F 13.4 °F 1016.9 in Calm     66 % 0.0 in
03:29 19.9 °F 13.6 °F 1016.9 in Calm     67 % 0.0 in
03:34 19.8 °F 13.7 °F 1016.9 in Calm     68 % 0.0 in
03:39 19.8 °F 13.7 °F 1016.9 in Calm     68 % 0.0 in
03:44 19.8 °F 13.9 °F 1016.9 in Calm     69 % 0.0 in
03:49 19.7 °F 13.8 °F 1016.9 in Calm     69 % 0.0 in
03:54 19.7 °F 13.8 °F 1016.9 in Calm     69 % 0.0 in
03:59 19.7 °F 13.8 °F 1016.9 in Calm     69 % 0.0 in
04:04 19.8 °F 13.9 °F 1016.9 in Calm     69 % 0.0 in
04:09 19.8 °F 13.9 °F 1016.9 in Calm     69 % 0.0 in
04:14 19.8 °F 14.2 °F 1016.9 in Calm     70 % 0.0 in
04:19 19.8 °F 14.2 °F 1016.9 in Calm     70 % 0.0 in
04:24 19.8 °F 13.9 °F 1016.9 in Calm     69 % 0.0 in
04:29 19.7 °F 14.1 °F 1016.9 in Calm     70 % 0.0 in
04:34 19.6 °F 14.0 °F 1016.9 in Calm     70 % 0.0 in
04:39 19.4 °F 13.8 °F 1017.9 in Calm     70 % 0.0 in
04:44 19.3 °F 13.7 °F 1017.9 in Calm     70 % 0.0 in
04:49 19.3 °F 13.7 °F 1017.9 in Calm     70 % 0.0 in
04:54 19.2 °F 13.6 °F 1017.9 in Calm     70 % 0.0 in
04:59 19.3 °F 13.7 °F 1017.9 in Calm     70 % 0.0 in
05:04 19.2 °F 13.8 °F 1017.9 in Calm     71 % 0.0 in
05:09 19.2 °F 13.8 °F 1017.9 in Calm     71 % 0.0 in
05:14 19.2 °F 13.8 °F 1017.9 in Calm     71 % 0.0 in
05:19 19.3 °F 14.1 °F 1017.9 in Calm     72 % 0.0 in
05:24 19.2 °F 14.1 °F 1017.9 in Calm     72 % 0.0 in
05:29 19.1 °F 13.9 °F 1017.9 in Calm     72 % 0.0 in
05:34 19.2 °F 14.1 °F 1017.9 in Calm     72 % 0.0 in
05:39 19.2 °F 14.2 °F 1017.9 in Calm     73 % 0.0 in
05:44 19.1 °F 14.2 °F 1017.9 in Calm     73 % 0.0 in
05:49 19.1 °F 14.2 °F 1017.9 in Calm     73 % 0.0 in
05:54 19.1 °F 14.2 °F 1017.9 in Calm     73 % 0.0 in
05:59 19.0 °F 14.1 °F 1017.9 in Calm     73 % 0.0 in
06:04 18.9 °F 14.2 °F 1017.9 in Calm     74 % 0.0 in
06:09 18.8 °F 14.1 °F 1016.9 in Calm     74 % 0.0 in
06:14 18.7 °F 13.9 °F 1016.9 in Calm     74 % 0.0 in
06:19 18.7 °F 13.9 °F 1016.9 in Calm     74 % 0.0 in
06:24 18.8 °F 14.1 °F 1016.9 in Calm     74 % 0.0 in
06:29 18.8 °F 14.3 °F 1016.9 in Calm     75 % 0.0 in
06:34 18.8 °F 14.3 °F 1016.9 in Calm     75 % 0.0 in
06:39 18.8 °F 14.3 °F 1017.9 in Calm     75 % 0.0 in
06:44 18.8 °F 14.3 °F 1017.9 in Calm     75 % 0.0 in
06:49 18.8 °F 14.3 °F 1017.9 in Calm     75 % 0.0 in
06:54 18.7 °F 14.2 °F 1017.9 in Calm     75 % 0.0 in
06:59 18.9 °F 14.4 °F 1017.9 in Calm     75 % 0.0 in
07:04 19.0 °F 14.4 °F 1017.9 in Calm     75 % 0.0 in
07:09 19.0 °F 14.3 °F 1017.9 in Calm     74 % 0.0 in
07:14 19.0 °F 14.3 °F 1017.9 in Calm     74 % 0.0 in
07:19 19.0 °F 14.3 °F 1017.9 in Calm     74 % 0.0 in
07:24 19.0 °F 14.3 °F 1017.9 in Calm     74 % 0.0 in
07:29 18.9 °F 14.4 °F 1017.9 in Calm     75 % 0.0 in
07:34 18.7 °F 14.2 °F 1017.9 in Calm     75 % 0.0 in
07:39 18.8 °F 14.3 °F 1017.9 in Calm     75 % 0.0 in
07:44 18.7 °F 13.9 °F 1017.9 in Calm     74 % 0.0 in
07:49 18.7 °F 13.9 °F 1017.9 in Calm     74 % 0.0 in
07:54 18.8 °F 14.3 °F 1017.9 in Calm     75 % 0.0 in
07:59 19.0 °F 14.3 °F 1017.9 in Calm     74 % 0.0 in
08:04 19.3 °F 14.6 °F 1017.9 in Calm     74 % 0.0 in
08:09 19.8 °F 15.1 °F 1017.9 in Calm     74 % 0.0 in
08:14 20.5 °F 15.5 °F 1017.9 in Calm     73 % 0.0 in
08:19 20.6 °F 15.2 °F 1017.9 in Calm     71 % 0.0 in
08:24 20.9 °F 15.4 °F 1017.9 in Calm     71 % 0.0 in
08:29 21.5 °F 15.6 °F 1017.9 in Calm     69 % 0.0 in
08:34 21.8 °F 15.8 °F 1017.9 in Calm     69 % 0.0 in
08:39 22.1 °F 15.7 °F 1017.9 in Calm     67 % 0.0 in
08:44 22.4 °F 15.7 °F 1017.9 in Calm     66 % 0.0 in
08:49 22.7 °F 16.0 °F 1017.9 in Calm     66 % 0.0 in
08:54 23.0 °F 16.1 °F 1017.9 in Calm     65 % 0.0 in
08:59 23.3 °F 16.1 °F 1017.9 in Calm     64 % 0.0 in
09:04 23.1 °F 15.9 °F 1017.9 in Calm     64 % 0.0 in
09:09 23.1 °F 15.7 °F 1017.9 in Calm     63 % 0.0 in
09:14 23.3 °F 15.8 °F 1017.9 in Calm     63 % 0.0 in
09:19 23.0 °F 15.6 °F 1017.9 in Calm     63 % 0.0 in
09:24 23.6 °F 16.2 °F 1017.9 in Calm     63 % 0.0 in
09:29 23.8 °F 16.3 °F 1017.9 in Calm     63 % 0.0 in
09:34 24.0 °F 16.0 °F 1017.9 in Calm     61 % 0.0 in
09:39 24.4 °F 16.4 °F 1018.9 in Calm     61 % 0.0 in
09:44 24.7 °F 16.2 °F 1018.9 in Calm     59 % 0.0 in
09:49 24.9 °F 16.3 °F 1018.9 in Calm     59 % 0.0 in
09:54 25.4 °F 16.6 °F 1017.9 in Calm     58 % 0.0 in
09:59 25.9 °F 16.7 °F 1017.9 in Calm     57 % 0.0 in
10:04 25.2 °F 15.8 °F 1017.9 in Calm     56 % 0.0 in
10:09 25.2 °F 15.8 °F 1017.9 in Calm     56 % 0.0 in
10:14 25.9 °F 16.4 °F 1017.9 in Calm     56 % 0.0 in
10:19 26.3 °F 16.8 °F 1017.9 in Calm     56 % 0.0 in
10:24 25.8 °F 15.8 °F 1017.9 in Calm     54 % 0.0 in
10:29 25.8 °F 16.1 °F 1017.9 in Calm     55 % 0.0 in
10:34 26.3 °F 16.6 °F 1017.9 in Calm     55 % 0.0 in
10:39 26.8 °F 16.7 °F 1017.9 in Calm     54 % 0.0 in
10:44 26.5 °F 16.4 °F 1017.9 in Calm     54 % 0.0 in
10:49 26.5 °F 16.2 °F 1017.9 in Calm     53 % 0.0 in
10:54 26.9 °F 16.8 °F 1018.9 in Calm     54 % 0.0 in
10:59 27.0 °F 16.3 °F 1018.9 in Calm     52 % 0.0 in
11:04 27.2 °F 16.5 °F 1018.9 in Calm     52 % 0.0 in
11:09 27.5 °F 16.8 °F 1018.9 in Calm     52 % 0.0 in
11:14 27.4 °F 16.7 °F 1018.9 in Calm     52 % 0.0 in
11:19 27.6 °F 16.6 °F 1018.9 in Calm     51 % 0.0 in
11:24 27.9 °F 16.8 °F 1017.9 in Calm     51 % 0.0 in
11:29 28.6 °F 17.4 °F 1017.9 in Calm     51 % 0.0 in
11:34 27.9 °F 16.5 °F 1017.9 in Calm     50 % 0.0 in
11:39 28.4 °F 17.3 °F 1017.9 in Calm     51 % 0.0 in
11:44 28.7 °F 17.2 °F 1017.9 in Calm     50 % 0.0 in
11:49 28.8 °F 17.0 °F 1017.9 in Calm     49 % 0.0 in
11:54 29.0 °F 16.9 °F 1017.9 in Calm     48 % 0.0 in
11:59 29.1 °F 17.3 °F 1017.9 in Calm     49 % 0.0 in
12:04 29.2 °F 17.1 °F 1017.9 in Calm     48 % 0.0 in
12:09 29.5 °F 17.0 °F 1017.9 in Calm     47 % 0.0 in
12:14 29.9 °F 17.4 °F 1017.9 in Calm     47 % 0.0 in
12:19 30.0 °F 17.1 °F 1017.9 in Calm     46 % 0.0 in
12:24 30.0 °F 17.1 °F 1016.9 in Calm     46 % 0.0 in
12:29 31.0 °F 17.7 °F 1016.9 in Calm     45 % 0.0 in
12:34 31.1 °F 17.4 °F 1016.9 in Calm     44 % 0.0 in
12:39 31.1 °F 17.4 °F 1017.9 in Calm     44 % 0.0 in
12:44 31.4 °F 17.3 °F 1017.9 in Calm     43 % 0.0 in
12:49 31.9 °F 17.8 °F 1017.9 in Calm     43 % 0.0 in
12:54 31.8 °F 17.3 °F 1016.9 in Calm     42 % 0.0 in
12:59 32.0 °F 16.7 °F 1016.9 in Calm     40 % 0.0 in
13:04 32.0 °F 17.1 °F 1016.9 in Calm     41 % 0.0 in
13:09 32.2 °F 16.9 °F 1015.9 in Calm     40 % 0.0 in
Meteo Sesrovires
Elogis d' Weather Underground - 2 mb

Guio original per  Jim McMurry - jmcmurry@mwt.net Adaptat per a la plantilla per  Wim van der Kuil - Leuven-Template.eu

Trobareu la nostra informacio del temps tambe a:

Weather Underground

AWEKAS